TimePDT,TemperatureF,Dew PointF,Humidity,Sea Level PressureIn,VisibilityMPH,Wind Direction,Wind SpeedMPH,Gust SpeedMPH,PrecipitationIn,Events,Conditions,WindDirDegrees,DateUTC
12:05 AM,60.8,60.8,100,29.91,7.0,Calm,Calm,-,N/A,,Mostly Cloudy,0,2012-10-22 07:05:00
12:25 AM,59.0,59.0,100,29.91,6.0,Calm,Calm,-,N/A,,Scattered Clouds,0,2012-10-22 07:25:00
12:54 AM,57.9,57.9,100,29.92,6.0,NE,3.5,-,N/A,,Partly Cloudy,50,2012-10-22 07:54:00
1:54 AM,57.0,57.0,100,29.92,7.0,NE,3.5,-,N/A,,Clear,50,2012-10-22 08:54:00
2:54 AM,57.9,57.9,100,29.91,7.0,NE,4.6,-,N/A,,Mostly Cloudy,40,2012-10-22 09:54:00
3:54 AM,57.9,57.9,100,29.90,7.0,ENE,5.8,-,N/A,,Overcast,60,2012-10-22 10:54:00
4:54 AM,60.1,60.1,100,29.91,8.0,Calm,Calm,-,N/A,,Overcast,0,2012-10-22 11:54:00
5:54 AM,60.1,60.1,100,29.92,7.0,Calm,Calm,-,N/A,,Overcast,0,2012-10-22 12:54:00
6:54 AM,61.0,61.0,100,29.94,5.0,Calm,Calm,-,N/A,,Mostly Cloudy,0,2012-10-22 13:54:00
7:54 AM,62.1,60.1,93,29.95,7.0,Calm,Calm,-,N/A,,Mostly Cloudy,0,2012-10-22 14:54:00
8:54 AM,62.1,60.1,93,29.97,7.0,WNW,5.8,-,N/A,,Mostly Cloudy,300,2012-10-22 15:54:00
9:54 AM,64.0,60.1,87,29.99,7.0,Calm,Calm,-,N/A,,Overcast,0,2012-10-22 16:54:00
10:00 AM,62.6,60.8,94,29.99,7.0,Calm,Calm,-,0.00,Rain,Light Rain,0,2012-10-22 17:00:00
10:54 AM,64.9,61.0,87,29.99,7.0,SSW,4.6,-,0.00,,Overcast,210,2012-10-22 17:54:00
11:11 AM,66.2,60.8,83,30.00,9.0,South,5.8,-,N/A,,Overcast,190,2012-10-22 18:11:00
11:39 AM,64.4,60.8,88,30.00,9.0,Calm,Calm,-,N/A,,Overcast,0,2012-10-22 18:39:00
11:54 AM,64.9,61.0,87,30.00,7.0,WSW,6.9,-,N/A,,Overcast,240,2012-10-22 18:54:00
12:14 PM,66.2,62.6,88,29.99,9.0,West,8.1,-,N/A,,Overcast,260,2012-10-22 19:14:00
12:54 PM,66.9,61.0,81,29.99,7.0,West,11.5,-,N/A,,Mostly Cloudy,260,2012-10-22 19:54:00
1:54 PM,66.0,60.1,81,29.97,7.0,West,11.5,-,N/A,,Mostly Cloudy,260,2012-10-22 20:54:00
2:54 PM,66.0,59.0,78,29.96,7.0,SW,11.5,-,N/A,,Mostly Cloudy,230,2012-10-22 21:54:00
3:54 PM,64.0,57.9,80,29.97,7.0,WSW,9.2,-,N/A,,Mostly Cloudy,250,2012-10-22 22:54:00
4:54 PM,64.0,57.9,80,29.97,7.0,West,8.1,-,N/A,,Overcast,270,2012-10-22 23:54:00
5:54 PM,63.0,57.0,81,29.96,7.0,West,5.8,-,N/A,,Mostly Cloudy,280,2012-10-23 00:54:00
6:54 PM,62.1,57.9,86,29.97,7.0,West,3.5,-,N/A,,Overcast,280,2012-10-23 01:54:00
7:54 PM,62.1,57.9,86,29.99,7.0,Calm,Calm,-,N/A,,Overcast,0,2012-10-23 02:54:00
8:20 PM,62.6,57.2,82,29.97,7.0,WNW,3.5,-,N/A,,Overcast,300,2012-10-23 03:20:00
8:54 PM,62.1,57.9,86,29.98,7.0,Calm,Calm,-,N/A,,Overcast,0,2012-10-23 03:54:00
9:54 PM,62.1,59.0,90,29.98,7.0,Calm,Calm,-,N/A,,Overcast,0,2012-10-23 04:54:00
10:43 PM,60.8,59.0,94,29.98,7.0,Calm,Calm,-,0.00,Rain,Light Rain,0,2012-10-23 05:43:00
10:54 PM,59.0,59.0,100,29.99,7.0,Calm,Calm,-,0.00,Rain,Light Rain,0,2012-10-23 05:54:00
11:35 PM,57.2,57.2,100,29.98,9.0,Calm,Calm,-,0.00,Rain,Light Rain,0,2012-10-23 06:35:00
11:54 PM,59.0,59.0,100,29.98,8.0,Calm,Calm,-,0.00,Rain,Light Rain,0,2012-10-23 06:54:00